Location: Banff
(51.1667°N, 115.5667°W)
Time: 13:40:54
(UTC+00:00)

Vanguard 1 Rocket - Pass Details

Date: 28 November 2020
Orbit: 655 x 4222 km, 34.3° (Epoch: 23 January)

Event Time Altitude Azimuth Distance (km) Brightness Sun altitude
Rises 10:50:53 0° 247° (WSW) 8,464 - -41.2°
Reaches altitude 10° 10:57:20 10° 242° (WSW) 7,365 - -40.2°
Exits shadow 11:13:38 39° 211° (SSW) 4,621 10.5 -37.8°
Maximum altitude 11:19:13 45° 181° (S) 3,997 10.4 -36.9°
Drops below altitude 10° 11:32:47 10° 115° (ESE) 4,738 11.6 -34.8°
Sets 11:35:53 0° 108° (ESE) 5,352 12.2 -34.4°
